{"data":{"norad_id":53524,"intl_designator":"2022-100C","name":"YAOGAN-35 04B","alt_names":[],"object_type":"PAYLOAD","status":"ACTIVE","operator":null,"country":"PRC","launch_date":"2022-08-19","launch_site_code":"XICLF","launch_vehicle":null,"mission":null,"orbit_class":"UNKNOWN","rcs_meters":null,"size_class":null,"mass_kg":null,"dimensions":null,"purposes":[],"wikipedia_slug":null,"has_3d_model":false,"image_url":null,"decayed_at":null,"tle_current":{"epoch":"2026-05-25T04:21:15.864768Z","epoch_age_seconds":66352,"freshness":"FRESH","line1":"1 53524U 22100C   26145.18143362  .00010408  00000+0  29662-3 0  9990","line2":"2 53524  35.0004 174.5397 0003000  83.3405 276.7655 15.35275267101693","mean_motion":15.35275267,"eccentricity":0.0003,"inclination_deg":35.0004,"raan_deg":174.5397,"arg_perigee_deg":83.3405,"mean_anomaly_deg":276.7655,"bstar":0.00029662,"rev_number":10169,"period_min":93.794255072827,"perigee_km":458.05152623589,"apogee_km":462.15447023483,"semimajor_km":6838.2399982354,"source":"CELESTRAK","updated_at":"2026-05-25T13:37:58.224900Z"}}}